| time (UTC) | temp F | wind direction | speed MPH | gust MPH | rain 1hr in | rain 24hr in | rain mn in | humidity % | barometer mb |
| 20260902224311 | 78 | 68 | 0.0 | 1.0 | 0.00 | 0.00 | 0.00 | 82 | 1005.9 |
| 20260902223807 | 78 | 77 | 1.0 | 1.0 | 0.00 | 0.00 | 0.00 | 82 | 1005.9 |
| 20260902223302 | 78 | 46 | 0.0 | 1.0 | 0.00 | 0.00 | 0.00 | 82 | 1005.9 |
| 20260902222800 | 78 | 34 | 0.0 | 0.0 | 0.00 | 0.00 | 0.00 | 83 | 1006.1 |
| 20260902222254 | 78 | 40 | 0.0 | 0.0 | 0.00 | 0.00 | 0.00 | 82 | 1006.0 |
| 20260902221748 | 78 | 41 | 0.0 | 0.0 | 0.00 | 0.00 | 0.00 | 82 | 1006.0 |
| 20260902221248 | 78 | 9 | 0.0 | 1.0 | 0.00 | 0.00 | 0.00 | 82 | 1005.8 |
| 20260902220738 | 78 | 57 | 0.0 | 1.0 | 0.00 | 0.00 | 0.00 | 82 | 1005.9 |
| 20260902220238 | 78 | 55 | 0.0 | 0.0 | 0.00 | 0.00 | 0.00 | 82 | 1006.0 |
| 20260902215733 | 78 | 12 | 1.0 | 1.0 | 0.00 | 0.00 | 0.00 | 82 | 1006.1 |
| 20260902215229 | 78 | 79 | 0.0 | 0.0 | 0.00 | 0.00 | 0.00 | 82 | 1006.1 |
| 20260902214724 | 78 | 80 | 0.0 | 1.0 | 0.00 | 0.00 | 0.00 | 82 | 1006.0 |
| 20260902214223 | 78 | 62 | 0.0 | 0.0 | 0.00 | 0.00 | 0.00 | 82 | 1006.1 |
| 20260902213719 | 78 | 62 | 0.0 | 0.0 | 0.00 | 0.00 | 0.00 | 82 | 1006.1 |
| 20260902213218 | 78 | 64 | 0.0 | 0.0 | 0.00 | 0.00 | 0.00 | 82 | 1006.0 |
| 20260902212718 | 78 | 59 | 0.0 | 1.0 | 0.00 | 0.00 | 0.00 | 82 | 1005.9 |
| 20260902212214 | 78 | 77 | 0.0 | 0.0 | 0.00 | 0.00 | 0.00 | 82 | 1006.2 |
| 20260902211710 | 78 | 77 | 0.0 | 0.0 | 0.00 | 0.00 | 0.00 | 82 | 1006.1 |
| 20260902211206 | 78 | 80 | 2.0 | 2.0 | 0.00 | 0.00 | 0.00 | 82 | 1006.2 |
| 20260902210701 | 78 | 51 | 1.0 | 1.0 | 0.00 | 0.00 | 0.00 | 82 | 1006.2 |
| 20260902210156 | 78 | 90 | 1.0 | 1.0 | 0.00 | 0.00 | 0.00 | 82 | 1006.5 |
| 20260902205654 | 78 | 56 | 0.0 | 0.0 | 0.00 | 0.00 | 0.00 | 81 | 1006.4 |
| 20260902205149 | 78 | 55 | 0.0 | 1.0 | 0.00 | 0.00 | 0.00 | 81 | 1006.2 |
| 20260902204644 | 78 | 78 | 1.0 | 1.0 | 0.00 | 0.00 | 0.00 | 82 | 1006.1 |
| 20260902204138 | 78 | 37 | 0.0 | 0.0 | 0.00 | 0.00 | 0.00 | 81 | 1006.2 |
| 20260902203634 | 78 | 37 | 0.0 | 0.0 | 0.00 | 0.00 | 0.00 | 81 | 1006.2 |
| 20260902203134 | 78 | 37 | 0.0 | 0.0 | 0.00 | 0.00 | 0.00 | 81 | 1006.1 |
| 20260902202629 | 79 | 46 | 0.0 | 0.0 | 0.00 | 0.00 | 0.00 | 81 | 1006.2 |
| 20260902202126 | 79 | 49 | 0.0 | 0.0 | 0.00 | 0.00 | 0.00 | 81 | 1006.2 |
| 20260902201622 | 79 | 49 | 0.0 | 0.0 | 0.00 | 0.00 | 0.00 | 81 | 1006.2 |
| 20260902201121 | 79 | 50 | 0.0 | 1.0 | 0.00 | 0.00 | 0.00 | 80 | 1006.2 |
| 20260902200616 | 79 | 51 | 0.0 | 0.0 | 0.00 | 0.00 | 0.00 | 80 | 1006.1 |
| 20260902200112 | 79 | 51 | 0.0 | 0.0 | 0.00 | 0.00 | 0.00 | 80 | 1006.1 |
| 20260902195608 | 79 | 51 | 0.0 | 0.0 | 0.00 | 0.00 | 0.00 | 80 | 1006.2 |
| 20260902195106 | 80 | 54 | 0.0 | 0.0 | 0.00 | 0.00 | 0.00 | 80 | 1006.3 |
| 20260902194600 | 80 | 60 | 0.0 | 0.0 | 0.00 | 0.00 | 0.00 | 80 | 1006.4 |
| 20260902194056 | 80 | 64 | 0.0 | 0.0 | 0.00 | 0.00 | 0.00 | 80 | 1006.5 |
| 20260902193552 | 80 | 356 | 0.0 | 0.0 | 0.00 | 0.00 | 0.00 | 80 | 1006.5 |
| 20260902193051 | 80 | 355 | 0.0 | 0.0 | 0.00 | 0.00 | 0.00 | 80 | 1006.6 |
| 20260902192550 | 80 | 337 | 0.0 | 1.0 | 0.00 | 0.00 | 0.00 | 80 | 1006.6 |
| 20260902192048 | 80 | 337 | 0.0 | 1.0 | 0.00 | 0.00 | 0.00 | 80 | 1006.5 |
| 20260902191544 | 80 | 333 | 0.0 | 1.0 | 0.00 | 0.00 | 0.00 | 80 | 1006.4 |
| 20260902191038 | 80 | 9 | 0.0 | 0.0 | 0.00 | 0.00 | 0.00 | 80 | 1006.3 |
| 20260902190534 | 80 | 9 | 0.0 | 1.0 | 0.00 | 0.00 | 0.00 | 79 | 1006.5 |
| 20260902190029 | 80 | 9 | 0.0 | 0.0 | 0.00 | 0.00 | 0.00 | 79 | 1006.4 |
| 20260902185525 | 80 | 9 | 0.0 | 1.0 | 0.00 | 0.00 | 0.00 | 79 | 1006.5 |
| 20260902185021 | 80 | 22 | 0.0 | 1.0 | 0.00 | 0.00 | 0.00 | 79 | 1006.3 |
| 20260902184515 | 80 | 23 | 0.0 | 0.0 | 0.00 | 0.00 | 0.00 | 79 | 1006.4 |
| 20260902184011 | 80 | 10 | 0.0 | 0.0 | 0.00 | 0.00 | 0.00 | 79 | 1006.4 |
| 20260902183507 | 80 | 24 | 0.0 | 0.0 | 0.00 | 0.00 | 0.00 | 79 | 1006.4 |
| 20260902183003 | 80 | 354 | 0.0 | 1.0 | 0.00 | 0.00 | 0.00 | 79 | 1006.4 |
| 20260902182459 | 80 | 352 | 1.0 | 1.0 | 0.00 | 0.00 | 0.00 | 79 | 1006.4 |
| 20260902181954 | 80 | 4 | 0.0 | 1.0 | 0.00 | 0.00 | 0.00 | 79 | 1006.5 |
| 20260902181450 | 80 | 4 | 0.0 | 1.0 | 0.00 | 0.00 | 0.00 | 79 | 1006.3 |
| 20260902180944 | 80 | 340 | 1.0 | 1.0 | 0.00 | 0.00 | 0.00 | 79 | 1006.3 |
| 20260902180440 | 80 | 353 | 1.0 | 1.0 | 0.00 | 0.00 | 0.00 | 79 | 1006.2 |
| 20260902175936 | 80 | 0 | 1.0 | 1.0 | 0.00 | 0.00 | 0.00 | 78 | 1006.4 |
| 20260902175431 | 81 | 3 | 1.0 | 1.0 | 0.00 | 0.00 | 0.00 | 78 | 1006.3 |
| 20260902174926 | 81 | 356 | 1.0 | 2.0 | 0.00 | 0.00 | 0.00 | 78 | 1006.0 |
| 20260902174423 | 81 | 346 | 1.0 | 2.0 | 0.00 | 0.00 | 0.00 | 78 | 1006.2 |
| 20260902173918 | 81 | 336 | 1.0 | 2.0 | 0.00 | 0.00 | 0.00 | 77 | 1006.2 |
| 20260902173417 | 81 | 2 | 2.0 | 2.0 | 0.00 | 0.00 | 0.00 | 77 | 1006.1 |
| 20260902172913 | 82 | 1 | 2.0 | 2.0 | 0.00 | 0.00 | 0.00 | 77 | 1006.2 |
| 20260902172412 | 82 | 336 | 3.0 | 3.0 | 0.00 | 0.00 | 0.00 | 76 | 1006.2 |
| 20260902171907 | 82 | 30 | 1.0 | 2.0 | 0.00 | 0.00 | 0.00 | 76 | 1005.9 |
| 20260902171402 | 82 | 27 | 2.0 | 3.0 | 0.00 | 0.00 | 0.00 | 76 | 1006.0 |
| 20260902170858 | 82 | 343 | 4.0 | 6.0 | 0.00 | 0.00 | 0.00 | 76 | 1006.1 |
| 20260902170353 | 82 | 0 | 2.0 | 6.0 | 0.00 | 0.00 | 0.00 | 77 | 1005.9 |
| 20260902165848 | 82 | 344 | 5.0 | 7.0 | 0.00 | 0.00 | 0.00 | 76 | 1005.7 |
| 20260902165347 | 82 | 354 | 5.0 | 7.0 | 0.00 | 0.00 | 0.00 | 75 | 1005.8 |
| 20260902164843 | 82 | 18 | 2.0 | 6.0 | 0.00 | 0.00 | 0.00 | 75 | 1005.6 |
| 20260902164337 | 82 | 2 | 3.0 | 5.0 | 0.00 | 0.00 | 0.00 | 75 | 1005.7 |
| 20260902163837 | 82 | 43 | 3.0 | 8.0 | 0.00 | 0.00 | 0.00 | 75 | 1005.5 |
| 20260902163337 | 83 | 28 | 2.0 | 5.0 | 0.00 | 0.00 | 0.00 | 74 | 1005.5 |
| 20260902162835 | 83 | 50 | 2.0 | 6.0 | 0.00 | 0.00 | 0.00 | 74 | 1005.5 |
| 20260902162330 | 83 | 347 | 5.0 | 7.0 | 0.00 | 0.00 | 0.00 | 73 | 1005.5 |
| 20260902161825 | 83 | 3 | 4.0 | 7.0 | 0.00 | 0.00 | 0.00 | 73 | 1005.5 |
| 20260902161321 | 84 | 35 | 2.0 | 6.0 | 0.00 | 0.00 | 0.00 | 72 | 1005.3 |
| 20260902160817 | 84 | 13 | 5.0 | 7.0 | 0.00 | 0.00 | 0.00 | 71 | 1005.5 |
| 20260902160312 | 84 | 13 | 3.0 | 7.0 | 0.00 | 0.00 | 0.00 | 71 | 1005.5 |
| 20260902155810 | 84 | 339 | 4.0 | 5.0 | 0.00 | 0.00 | 0.00 | 71 | 1005.5 |
| 20260902155309 | 84 | 7 | 5.0 | 8.0 | 0.00 | 0.00 | 0.00 | 70 | 1005.4 |
| 20260902154804 | 84 | 12 | 5.0 | 8.0 | 0.00 | 0.00 | 0.00 | 70 | 1005.6 |
| 20260902154300 | 85 | 344 | 7.0 | 9.0 | 0.00 | 0.00 | 0.00 | 69 | 1005.5 |
| 20260902153758 | 85 | 42 | 5.0 | 7.0 | 0.00 | 0.00 | 0.00 | 68 | 1005.3 |
| 20260902153253 | 85 | 359 | 5.0 | 8.0 | 0.00 | 0.00 | 0.00 | 67 | 1005.6 |
| 20260902152749 | 86 | 5 | 3.0 | 5.0 | 0.00 | 0.00 | 0.00 | 66 | 1005.5 |
| 20260902152245 | 86 | 342 | 6.0 | 11.0 | 0.00 | 0.00 | 0.00 | 66 | 1005.5 |
| 20260902151745 | 86 | 347 | 5.0 | 8.0 | 0.00 | 0.00 | 0.00 | 66 | 1005.3 |
| 20260902151240 | 86 | 344 | 8.0 | 9.0 | 0.00 | 0.00 | 0.00 | 65 | 1005.4 |
| 20260902150734 | 87 | 2 | 5.0 | 8.0 | 0.00 | 0.00 | 0.00 | 64 | 1005.6 |
| 20260902150231 | 87 | 349 | 5.0 | 8.0 | 0.00 | 0.00 | 0.00 | 63 | 1005.6 |
| 20260902145730 | 87 | 14 | 4.0 | 8.0 | 0.00 | 0.00 | 0.00 | 64 | 1005.4 |
| 20260902145225 | 87 | 327 | 7.0 | 11.0 | 0.00 | 0.00 | 0.00 | 63 | 1005.3 |
| 20260902144721 | 87 | 347 | 5.0 | 7.0 | 0.00 | 0.00 | 0.00 | 62 | 1005.4 |
| 20260902144216 | 88 | 30 | 9.0 | 11.0 | 0.00 | 0.00 | 0.00 | 61 | 1005.3 |
| 20260902143711 | 88 | 357 | 4.0 | 7.0 | 0.00 | 0.00 | 0.00 | 61 | 1005.2 |
| 20260902143206 | 87 | 352 | 3.0 | 8.0 | 0.00 | 0.00 | 0.00 | 62 | 1005.2 |
| 20260902142705 | 87 | 329 | 11.0 | 14.0 | 0.00 | 0.00 | 0.00 | 62 | 1005.2 |
| 20260902142157 | 87 | 5 | 6.0 | 10.0 | 0.00 | 0.00 | 0.00 | 63 | 1005.1 |
| 20260902141652 | 87 | 338 | 7.0 | 9.0 | 0.00 | 0.00 | 0.00 | 63 | 1005.1 |
| 20260902141147 | 88 | 351 | 11.0 | 13.0 | 0.00 | 0.00 | 0.00 | 61 | 1005.2 |
| 20260902140642 | 88 | 335 | 7.0 | 11.0 | 0.00 | 0.00 | 0.00 | 61 | 1005.1 |
| 20260902140137 | 88 | 324 | 9.0 | 13.0 | 0.00 | 0.00 | 0.00 | 61 | 1005.3 |
| 20260902135636 | 88 | 303 | 8.0 | 13.0 | 0.00 | 0.00 | 0.00 | 61 | 1005.3 |
| 20260902135132 | 88 | 335 | 10.0 | 14.0 | 0.00 | 0.00 | 0.00 | 60 | 1005.4 |
| 20260902134627 | 88 | 290 | 7.0 | 11.0 | 0.00 | 0.00 | 0.00 | 60 | 1005.3 |
| 20260902134121 | 88 | 341 | 8.0 | 15.0 | 0.00 | 0.00 | 0.00 | 60 | 1005.1 |
| 20260902133616 | 88 | 332 | 8.0 | 15.0 | 0.00 | 0.00 | 0.00 | 60 | 1005.4 |
| 20260902133111 | 89 | 303 | 9.0 | 14.0 | 0.00 | 0.00 | 0.00 | 58 | 1005.1 |
| 20260902132606 | 88 | 341 | 7.0 | 9.0 | 0.00 | 0.00 | 0.00 | 60 | 1005.1 |
| 20260902132101 | 89 | 311 | 11.0 | 14.0 | 0.00 | 0.00 | 0.00 | 59 | 1005.2 |
| 20260902131557 | 89 | 328 | 5.0 | 16.0 | 0.00 | 0.00 | 0.00 | 58 | 1005.2 |
| 20260902131052 | 89 | 9 | 7.0 | 9.0 | 0.00 | 0.00 | 0.00 | 59 | 1005.3 |
| 20260902130548 | 89 | 355 | 11.0 | 16.0 | 0.00 | 0.00 | 0.00 | 60 | 1005.3 |
| 20260902130043 | 89 | 348 | 6.0 | 10.0 | 0.00 | 0.00 | 0.00 | 59 | 1005.2 |
| 20260902125539 | 89 | 348 | 9.0 | 14.0 | 0.00 | 0.00 | 0.00 | 60 | 1005.4 |
| 20260902125034 | 90 | 348 | 7.0 | 8.0 | 0.00 | 0.00 | 0.00 | 58 | 1005.1 |
| 20260902124530 | 88 | 263 | 13.0 | 17.0 | 0.00 | 0.00 | 0.00 | 60 | 1005.3 |
| 20260902124025 | 88 | 322 | 9.0 | 15.0 | 0.00 | 0.00 | 0.00 | 60 | 1005.4 |
| 20260902123521 | 89 | 335 | 7.0 | 15.0 | 0.00 | 0.00 | 0.00 | 60 | 1005.4 |
| 20260902123021 | 89 | 290 | 8.0 | 15.0 | 0.00 | 0.00 | 0.00 | 61 | 1005.3 |
| 20260902122520 | 88 | 351 | 14.0 | 16.0 | 0.00 | 0.00 | 0.00 | 61 | 1005.5 |
| 20260902122015 | 89 | 312 | 14.0 | 16.0 | 0.00 | 0.00 | 0.00 | 59 | 1005.5 |
| 20260902121510 | 89 | 350 | 7.0 | 15.0 | 0.00 | 0.00 | 0.00 | 59 | 1005.3 |
| 20260902121005 | 90 | 342 | 10.0 | 13.0 | 0.00 | 0.00 | 0.00 | 58 | 1005.6 |
| 20260902120502 | 89 | 281 | 7.0 | 13.0 | 0.00 | 0.00 | 0.00 | 61 | 1005.6 |
| 20260902120001 | 90 | 266 | 12.0 | 16.0 | 0.00 | 0.00 | 0.00 | 60 | 1005.6 |
| 20260902115457 | 89 | 354 | 4.0 | 8.0 | 0.00 | 0.00 | 0.00 | 59 | 1005.3 |
| 20260902114954 | 89 | 316 | 9.0 | 11.0 | 0.00 | 0.00 | 0.00 | 59 | 1005.6 |
| 20260902114449 | 89 | 299 | 10.0 | 15.0 | 0.00 | 0.00 | 0.00 | 59 | 1005.5 |
| 20260902113944 | 89 | 274 | 7.0 | 16.0 | 0.00 | 0.00 | 0.00 | 60 | 1005.7 |
| 20260902113440 | 89 | 31 | 5.0 | 16.0 | 0.00 | 0.00 | 0.00 | 59 | 1005.5 |
| 20260902112939 | 90 | 346 | 9.0 | 13.0 | 0.00 | 0.00 | 0.00 | 60 | 1005.7 |
| 20260902112436 | 90 | 338 | 4.0 | 10.0 | 0.00 | 0.00 | 0.00 | 60 | 1005.5 |
| 20260902111931 | 90 | 332 | 6.0 | 11.0 | 0.00 | 0.00 | 0.00 | 58 | 1005.8 |
| 20260902111428 | 90 | 348 | 9.0 | 16.0 | 0.00 | 0.00 | 0.00 | 59 | 1005.8 |
| 20260902110923 | 91 | 292 | 6.0 | 10.0 | 0.00 | 0.00 | 0.00 | 58 | 1005.7 |
| 20260902110420 | 91 | 342 | 10.0 | 13.0 | 0.00 | 0.00 | 0.00 | 56 | 1005.8 |
| 20260902105919 | 90 | 260 | 6.0 | 11.0 | 0.00 | 0.00 | 0.00 | 58 | 1005.8 |
| 20260902105414 | 91 | 354 | 3.0 | 9.0 | 0.00 | 0.00 | 0.00 | 56 | 1005.9 |
| 20260902104909 | 91 | 320 | 3.0 | 8.0 | 0.00 | 0.00 | 0.00 | 55 | 1005.8 |
| 20260902104400 | 91 | 343 | 9.0 | 11.0 | 0.00 | 0.00 | 0.00 | 56 | 1006.1 |
| 20260902103859 | 90 | 78 | 2.0 | 11.0 | 0.00 | 0.00 | 0.00 | 58 | 1005.8 |
| 20260902103355 | 91 | 300 | 10.0 | 11.0 | 0.00 | 0.00 | 0.00 | 56 | 1006.1 |
| 20260902102854 | 90 | 14 | 5.0 | 13.0 | 0.00 | 0.00 | 0.00 | 58 | 1005.8 |
| 20260902102353 | 90 | 328 | 2.0 | 7.0 | 0.00 | 0.00 | 0.00 | 59 | 1005.8 |
| 20260902101848 | 90 | 264 | 9.0 | 11.0 | 0.00 | 0.00 | 0.00 | 60 | 1006.0 |
| 20260902101343 | 91 | 347 | 2.0 | 7.0 | 0.00 | 0.00 | 0.00 | 59 | 1005.8 |
| 20260902100836 | 90 | 109 | 3.0 | 8.0 | 0.00 | 0.00 | 0.00 | 59 | 1006.1 |
| 20260902100331 | 90 | 345 | 3.0 | 7.0 | 0.00 | 0.00 | 0.00 | 60 | 1006.0 |
| 20260902095825 | 90 | 338 | 9.0 | 13.0 | 0.00 | 0.00 | 0.00 | 60 | 1005.9 |
| 20260902095320 | 90 | 322 | 6.0 | 8.0 | 0.00 | 0.00 | 0.00 | 60 | 1006.0 |
| 20260902094814 | 89 | 122 | 7.0 | 13.0 | 0.00 | 0.00 | 0.00 | 61 | 1006.0 |
| 20260902094311 | 90 | 232 | 11.0 | 14.0 | 0.00 | 0.00 | 0.00 | 60 | 1006.2 |
| 20260902093810 | 90 | 346 | 6.0 | 13.0 | 0.00 | 0.00 | 0.00 | 61 | 1006.5 |
| 20260902093305 | 89 | 347 | 6.0 | 9.0 | 0.00 | 0.00 | 0.00 | 61 | 1006.1 |
| 20260902092804 | 89 | 263 | 6.0 | 10.0 | 0.00 | 0.00 | 0.00 | 61 | 1006.3 |
| 20260902092300 | 89 | 325 | 7.0 | 11.0 | 0.00 | 0.00 | 0.00 | 61 | 1006.4 |
| 20260902091759 | 91 | 267 | 9.0 | 13.0 | 0.00 | 0.00 | 0.00 | 57 | 1006.5 |
| 20260902091256 | 91 | 355 | 3.0 | 7.0 | 0.00 | 0.00 | 0.00 | 53 | 1006.5 |
| 20260902090752 | 91 | 335 | 8.0 | 11.0 | 0.00 | 0.00 | 0.00 | 52 | 1006.5 |
| 20260902090251 | 91 | 193 | 0.0 | 5.0 | 0.00 | 0.00 | 0.00 | 50 | 1006.5 |
| 20260902085750 | 90 | 128 | 2.0 | 3.0 | 0.00 | 0.00 | 0.00 | 50 | 1006.5 |
| 20260902085246 | 90 | 304 | 6.0 | 8.0 | 0.00 | 0.00 | 0.00 | 51 | 1006.6 |
| 20260902084742 | 89 | 275 | 4.0 | 8.0 | 0.00 | 0.00 | 0.00 | 53 | 1006.5 |
| 20260902084237 | 89 | 343 | 8.0 | 9.0 | 0.00 | 0.00 | 0.00 | 52 | 1006.8 |
| 20260902083732 | 88 | 348 | 4.0 | 9.0 | 0.00 | 0.00 | 0.00 | 54 | 1007.0 |
| 20260902083227 | 88 | 331 | 4.0 | 9.0 | 0.00 | 0.00 | 0.00 | 56 | 1006.8 |
| 20260902082722 | 88 | 352 | 5.0 | 10.0 | 0.00 | 0.00 | 0.00 | 57 | 1006.9 |
| 20260902082219 | 88 | 297 | 9.0 | 14.0 | 0.00 | 0.00 | 0.00 | 56 | 1007.0 |
| 20260902081714 | 88 | 291 | 9.0 | 10.0 | 0.00 | 0.00 | 0.00 | 57 | 1007.0 |
| 20260902081209 | 87 | 348 | 1.0 | 3.0 | 0.00 | 0.00 | 0.00 | 58 | 1007.1 |
| 20260902080704 | 87 | 297 | 8.0 | 11.0 | 0.00 | 0.00 | 0.00 | 58 | 1007.0 |
| 20260902080201 | 88 | 349 | 2.0 | 7.0 | 0.00 | 0.00 | 0.00 | 57 | 1007.1 |
| 20260902075701 | 87 | 358 | 3.0 | 3.0 | 0.00 | 0.00 | 0.00 | 58 | 1007.1 |
| 20260902075157 | 87 | 324 | 7.0 | 9.0 | 0.00 | 0.00 | 0.00 | 60 | 1006.9 |
| 20260902074657 | 87 | 307 | 6.0 | 8.0 | 0.00 | 0.00 | 0.00 | 59 | 1006.9 |
| 20260902074152 | 87 | 342 | 4.0 | 6.0 | 0.00 | 0.00 | 0.00 | 59 | 1007.1 |
| 20260902073647 | 87 | 101 | 3.0 | 3.0 | 0.00 | 0.00 | 0.00 | 61 | 1007.0 |
| 20260902073143 | 86 | 336 | 4.0 | 8.0 | 0.00 | 0.00 | 0.00 | 61 | 1007.0 |
| 20260902072639 | 87 | 339 | 4.0 | 6.0 | 0.00 | 0.00 | 0.00 | 62 | 1006.9 |
| 20260902072135 | 86 | 26 | 1.0 | 3.0 | 0.00 | 0.00 | 0.00 | 64 | 1007.1 |
| 20260902071630 | 86 | 342 | 3.0 | 6.0 | 0.00 | 0.00 | 0.00 | 64 | 1007.1 |
| 20260902071126 | 86 | 89 | 0.0 | 2.0 | 0.00 | 0.00 | 0.00 | 64 | 1007.1 |
| 20260902070621 | 85 | 42 | 0.0 | 0.0 | 0.00 | 0.00 | 0.00 | 67 | 1007.1 |
| 20260902070116 | 84 | 292 | 3.0 | 7.0 | 0.00 | 0.00 | 0.00 | 67 | 1007.2 |
| 20260902065615 | 85 | 353 | 7.0 | 10.0 | 0.00 | 0.00 | 0.00 | 66 | 1007.1 |
| 20260902065111 | 84 | 307 | 1.0 | 3.0 | 0.00 | 0.00 | 0.00 | 65 | 1007.3 |
| 20260902064606 | 84 | 311 | 2.0 | 5.0 | 0.00 | 0.00 | 0.00 | 65 | 1007.3 |
| 20260902064101 | 84 | 259 | 5.0 | 8.0 | 0.00 | 0.00 | 0.00 | 67 | 1007.3 |
| 20260902063556 | 83 | 264 | 0.0 | 3.0 | 0.00 | 0.00 | 0.00 | 69 | 1007.4 |
| 20260902063051 | 84 | 346 | 3.0 | 3.0 | 0.00 | 0.00 | 0.00 | 70 | 1007.4 |
| 20260902062550 | 84 | 358 | 1.0 | 2.0 | 0.00 | 0.00 | 0.00 | 69 | 1007.4 |
| 20260902062046 | 83 | 354 | 1.0 | 2.0 | 0.00 | 0.00 | 0.00 | 71 | 1007.3 |
| 20260902061545 | 84 | 161 | 2.0 | 3.0 | 0.00 | 0.00 | 0.00 | 70 | 1007.4 |
| 20260902061041 | 83 | 163 | 1.0 | 2.0 | 0.00 | 0.00 | 0.00 | 71 | 1007.3 |
| 20260902060537 | 82 | 43 | 2.0 | 2.0 | 0.00 | 0.00 | 0.00 | 72 | 1007.3 |
| 20260902060034 | 82 | 333 | 4.0 | 5.0 | 0.00 | 0.00 | 0.00 | 72 | 1007.3 |
| 20260902055529 | 83 | 338 | 3.0 | 8.0 | 0.00 | 0.00 | 0.00 | 73 | 1007.4 |
| 20260902055024 | 83 | 108 | 1.0 | 2.0 | 0.00 | 0.00 | 0.00 | 75 | 1007.4 |
| 20260902054519 | 83 | 103 | 0.0 | 1.0 | 0.00 | 0.00 | 0.00 | 76 | 1007.5 |
| 20260902054015 | 82 | 103 | 0.0 | 1.0 | 0.00 | 0.00 | 0.00 | 76 | 1007.5 |
| 20260902053510 | 83 | 94 | 3.0 | 5.0 | 0.00 | 0.00 | 0.00 | 76 | 1007.4 |
| 20260902053010 | 82 | 171 | 0.0 | 2.0 | 0.00 | 0.00 | 0.00 | 77 | 1007.4 |
| 20260902052504 | 81 | 64 | 0.0 | 1.0 | 0.00 | 0.00 | 0.00 | 79 | 1007.3 |
| 20260902052000 | 81 | 77 | 0.0 | 1.0 | 0.00 | 0.00 | 0.00 | 79 | 1007.5 |
| 20260902051500 | 81 | 58 | 0.0 | 1.0 | 0.00 | 0.00 | 0.00 | 80 | 1007.4 |
| 20260902050958 | 80 | 80 | 1.0 | 2.0 | 0.00 | 0.00 | 0.00 | 81 | 1007.4 |
| 20260902050453 | 80 | 99 | 2.0 | 2.0 | 0.00 | 0.00 | 0.00 | 82 | 1007.3 |
| 20260902045948 | 79 | 47 | 0.0 | 1.0 | 0.00 | 0.00 | 0.00 | 83 | 1007.5 |
| 20260902045444 | 78 | 70 | 0.0 | 1.0 | 0.00 | 0.00 | 0.00 | 84 | 1007.5 |
| 20260902044940 | 78 | 30 | 1.0 | 1.0 | 0.00 | 0.00 | 0.00 | 85 | 1007.4 |
| 20260902044435 | 77 | 44 | 0.0 | 2.0 | 0.00 | 0.00 | 0.00 | 86 | 1007.4 |
| 20260902043930 | 77 | 48 | 0.0 | 0.0 | 0.00 | 0.00 | 0.00 | 86 | 1007.3 |
| 20260902043425 | 76 | 36 | 1.0 | 2.0 | 0.00 | 0.00 | 0.00 | 86 | 1007.5 |
| 20260902042920 | 76 | 39 | 0.0 | 1.0 | 0.00 | 0.00 | 0.00 | 87 | 1007.6 |
| 20260902042419 | 76 | 15 | 1.0 | 2.0 | 0.00 | 0.00 | 0.00 | 87 | 1007.5 |
| 20260902041915 | 76 | 79 | 1.0 | 2.0 | 0.00 | 0.00 | 0.00 | 87 | 1007.3 |
| 20260902041409 | 76 | 46 | 0.0 | 0.0 | 0.00 | 0.00 | 0.00 | 87 | 1007.4 |
| 20260902040911 | 75 | 9 | 0.0 | 1.0 | 0.00 | 0.00 | 0.00 | 87 | 1007.4 |
| 20260902040403 | 75 | 30 | 0.0 | 1.0 | 0.00 | 0.00 | 0.00 | 87 | 1007.1 |
| 20260902035902 | 75 | 61 | 0.0 | 1.0 | 0.00 | 0.00 | 0.00 | 87 | 1007.3 |
| 20260902035352 | 75 | 20 | 0.0 | 1.0 | 0.00 | 0.00 | 0.00 | 87 | 1007.3 |
| 20260902034851 | 75 | 4 | 0.0 | 1.0 | 0.00 | 0.00 | 0.00 | 87 | 1007.1 |
| 20260902034347 | 75 | 32 | 0.0 | 2.0 | 0.00 | 0.00 | 0.00 | 87 | 1007.4 |
| 20260902033844 | 75 | 32 | 0.0 | 0.0 | 0.00 | 0.00 | 0.00 | 87 | 1007.0 |
| 20260902033340 | 75 | 74 | 1.0 | 1.0 | 0.00 | 0.00 | 0.00 | 87 | 1007.2 |
| 20260902032839 | 75 | 56 | 0.0 | 0.0 | 0.00 | 0.00 | 0.00 | 87 | 1007.1 |
| 20260902032338 | 75 | 64 | 0.0 | 0.0 | 0.00 | 0.00 | 0.00 | 87 | 1007.1 |
| 20260902031833 | 75 | 35 | 0.0 | 1.0 | 0.00 | 0.00 | 0.00 | 87 | 1007.2 |
| 20260902031329 | 75 | 18 | 1.0 | 1.0 | 0.00 | 0.00 | 0.00 | 86 | 1007.1 |
| 20260902030819 | 75 | 46 | 0.0 | 1.0 | 0.00 | 0.00 | 0.00 | 86 | 1006.9 |
| 20260902030313 | 75 | 34 | 0.0 | 1.0 | 0.00 | 0.00 | 0.00 | 86 | 1007.1 |
| 20260902025813 | 75 | 105 | 1.0 | 2.0 | 0.00 | 0.00 | 0.00 | 86 | 1007.1 |
| 20260902025309 | 75 | 67 | 0.0 | 1.0 | 0.00 | 0.00 | 0.00 | 86 | 1006.9 |
| 20260902024803 | 75 | 51 | 0.0 | 1.0 | 0.00 | 0.00 | 0.00 | 86 | 1007.1 |
| 20260902024258 | 75 | 60 | 0.0 | 0.0 | 0.00 | 0.00 | 0.00 | 86 | 1007.0 |
| 20260902023754 | 75 | 15 | 1.0 | 1.0 | 0.00 | 0.00 | 0.00 | 86 | 1006.9 |
| 20260902023249 | 75 | 48 | 0.0 | 1.0 | 0.00 | 0.00 | 0.00 | 86 | 1006.9 |
| 20260902022748 | 75 | 49 | 0.0 | 0.0 | 0.00 | 0.00 | 0.00 | 86 | 1006.5 |
| 20260902022243 | 75 | 49 | 0.0 | 1.0 | 0.00 | 0.00 | 0.00 | 86 | 1006.8 |
| 20260902021734 | 75 | 60 | 1.0 | 2.0 | 0.00 | 0.00 | 0.00 | 86 | 1006.8 |
| 20260902021233 | 75 | 70 | 0.0 | 1.0 | 0.00 | 0.00 | 0.00 | 86 | 1006.7 |
| 20260902020730 | 75 | 84 | 1.0 | 1.0 | 0.00 | 0.00 | 0.00 | 86 | 1006.8 |
| 20260902020225 | 75 | 55 | 0.0 | 1.0 | 0.00 | 0.00 | 0.00 | 86 | 1006.6 |
| 20260902015720 | 75 | 115 | 2.0 | 2.0 | 0.00 | 0.00 | 0.00 | 86 | 1006.8 |
| 20260902015217 | 75 | 45 | 0.0 | 1.0 | 0.00 | 0.00 | 0.00 | 86 | 1006.8 |
| 20260902014712 | 75 | 66 | 0.0 | 2.0 | 0.00 | 0.00 | 0.00 | 86 | 1006.7 |
| 20260902014209 | 75 | 147 | 1.0 | 2.0 | 0.00 | 0.00 | 0.00 | 86 | 1006.7 |
| 20260902013707 | 75 | 65 | 0.0 | 1.0 | 0.00 | 0.00 | 0.00 | 86 | 1006.6 |
| 20260902013203 | 75 | 75 | 0.0 | 2.0 | 0.00 | 0.00 | 0.00 | 86 | 1006.8 |
| 20260902012658 | 75 | 67 | 1.0 | 2.0 | 0.00 | 0.00 | 0.00 | 86 | 1007.0 |
| 20260902012153 | 75 | 80 | 1.0 | 2.0 | 0.00 | 0.00 | 0.00 | 86 | 1006.9 |
| 20260902011648 | 75 | 92 | 1.0 | 5.0 | 0.00 | 0.00 | 0.00 | 86 | 1006.7 |
| 20260902011143 | 76 | 69 | 1.0 | 2.0 | 0.00 | 0.00 | 0.00 | 86 | 1006.6 |
| 20260902010642 | 75 | 41 | 0.0 | 1.0 | 0.00 | 0.00 | 0.00 | 86 | 1006.8 |
| 20260902010138 | 75 | 99 | 1.0 | 1.0 | 0.00 | 0.00 | 0.00 | 86 | 1006.8 |
| 20260902005636 | 75 | 74 | 1.0 | 2.0 | 0.00 | 0.00 | 0.00 | 86 | 1006.8 |
| 20260902005132 | 75 | 83 | 1.0 | 2.0 | 0.00 | 0.00 | 0.00 | 86 | 1006.8 |
| 20260902004632 | 75 | 66 | 1.0 | 1.0 | 0.00 | 0.00 | 0.00 | 86 | 1006.7 |
| 20260902004127 | 76 | 43 | 0.0 | 0.0 | 0.00 | 0.00 | 0.00 | 86 | 1006.9 |
| 20260902003622 | 76 | 88 | 0.0 | 1.0 | 0.00 | 0.00 | 0.00 | 86 | 1006.5 |
| 20260902003117 | 76 | 72 | 1.0 | 1.0 | 0.00 | 0.00 | 0.00 | 86 | 1006.6 |
| 20260902002613 | 76 | 31 | 0.0 | 1.0 | 0.00 | 0.00 | 0.00 | 85 | 1006.5 |
| 20260902002108 | 76 | 62 | 0.0 | 0.0 | 0.00 | 0.00 | 0.00 | 85 | 1006.7 |
| 20260902001603 | 76 | 50 | 0.0 | 1.0 | 0.00 | 0.00 | 0.00 | 85 | 1006.9 |
| 20260902001058 | 76 | 93 | 1.0 | 1.0 | 0.00 | 0.00 | 0.00 | 85 | 1006.6 |
| 20260902000552 | 76 | 23 | 0.0 | 1.0 | 0.00 | 0.00 | 0.00 | 85 | 1006.6 |
| 20260902000048 | 76 | 76 | 1.0 | 2.0 | 0.00 | 0.00 | 0.00 | 85 | 1006.6 |
| 20260901235541 | 76 | 88 | 0.0 | 1.0 | 0.00 | 0.00 | 0.00 | 85 | 1006.7 |
| 20260901235038 | 76 | 37 | 0.0 | 0.0 | 0.00 | 0.00 | 0.00 | 85 | 1006.9 |
| 20260901234536 | 76 | 72 | 1.0 | 2.0 | 0.00 | 0.00 | 0.00 | 85 | 1006.6 |
| 20260901234032 | 76 | 58 | 0.0 | 2.0 | 0.00 | 0.00 | 0.00 | 84 | 1006.9 |
| 20260901233531 | 77 | 88 | 0.0 | 2.0 | 0.00 | 0.00 | 0.00 | 84 | 1006.6 |
| 20260901233028 | 77 | 57 | 0.0 | 1.0 | 0.00 | 0.00 | 0.00 | 84 | 1006.7 |
| 20260901232523 | 77 | 58 | 0.0 | 0.0 | 0.00 | 0.00 | 0.00 | 84 | 1006.9 |
| 20260901232018 | 77 | 293 | 1.0 | 2.0 | 0.00 | 0.00 | 0.00 | 84 | 1006.8 |
| 20260901231514 | 77 | 121 | 2.0 | 2.0 | 0.00 | 0.00 | 0.00 | 84 | 1006.5 |
| 20260901231011 | 77 | 57 | 1.0 | 3.0 | 0.00 | 0.00 | 0.00 | 84 | 1006.9 |
| 20260901230510 | 77 | 114 | 1.0 | 2.0 | 0.00 | 0.00 | 0.00 | 84 | 1006.8 |
| 20260901230006 | 77 | 26 | 0.0 | 0.0 | 0.00 | 0.00 | 0.00 | 83 | 1006.6 |
| 20260901225500 | 77 | 62 | 0.0 | 1.0 | 0.00 | 0.00 | 0.00 | 84 | 1006.9 |
| 20260901224954 | 77 | 67 | 0.0 | 1.0 | 0.00 | 0.00 | 0.00 | 83 | 1006.8 |